BRITE-CA1 (TORONTO)

Last updated on Sat Oct 25 2025 00:03:37 GMT+0000 (Coordinated Universal Time)

1 40020U 14033L 25297.63257543 .00001607 00000+0 25223-3 0 9997 2 40020 97.9453 66.4667 0078558 311.6475 47.8023 14.71992161607558
UTC large
Height (km)
Speed (km/s)
/
Latitude / Longitude
Inclination (degrees)
Orbital Period (minutes)
Azimuth
Elevation
Range (km)
Doppler Factor

Next 0 passes for location: London (51.5072 / 0.1276)

Sorry there are no passes over London.